www.pogodaiklimat.ru

Погода и климат >> Архив погоды >> Россия >> Ямало-Ненецкий АО >> Мужи


ПОГОДА в Мужах

  • Прогноз погоды в Мужах
  • Монитор погоды в Мужах

АРХИВ ПОГОДЫ в Мужах

Время (UTC), дата Ветер
(напр.,м/с)
 
Видим.   Явления Облачность Т
(С)
Тd
(С)
f
(%)
Тe
(С)
Тes
(С)
Комфортность P
(гПа)
Po
(гПа)
Тmin
(С)
Tmax
(С)
R
(мм)
R24
(мм)
S
(см)
15 9.07 ЮВ 1 >70 км {ливн. осадки} 9/9 600 м
[Cb cap]
+14.8 +10.4 75 +15 +15 1004.8 1002.6 +18.2 0.0
18 9.07 ЮЗ 3 >70 км {ливн. осадки} 10/10 600 м
[Cu Sc]
+12.9 +10.5 85 +11 +11 1005.1 1002.9
21 9.07 Ю 2 >70 км 10/0
[Ac As]
+11.8 +10.7 93 +11 +11 1005.0 1002.8
00 10.07 ЮВ 1 >70 км 10/0
[Ac As]
+11.8 +10.4 91 +12 +12 1004.9 1002.7
03 10.07 Ю 1 >70 км 9/8 1000 м
[Sc Ac trans]
+14.1 +9.9 76 +14 +15 1004.8 1002.6 +11.3
06 10.07 ЮВ 3 60 км 8/8 600 м
[Cb cap Ci fib]
+16.2 +11.4 73 +16 +18 1004.3 1002.1
09 10.07 Ю 3 55 км 10/6 600 м
[Cb cap Ci fib]
+18.7 +10.5 59 +19 +22 1003.8 1001.7
12 10.07 ЮВ 3 >70 км 10/3 600 м
[Cu hum As op]
+18.4 +9.7 57 +19 +20 1002.7 1000.5
15 10.07 В 1 18 км слаб. дождь 10/0
[As op]
+16.7 +11.6 72 +18 +18 1001.6 999.5 +19.0 0.0
18 10.07 СЗ 1 12 км слаб. дождь 10/0
[As op]
+14.7 +13.8 94 +15 +15 1000.0 997.8
21 10.07 ЮВ 2 14 км слаб. дождь 10/0
[As op]
+15.4 +14.6 95 +15 +15 998.0 995.8
00 11.07 СЗ 1 15 км слаб. дождь 10/5 300 м
[Frnb As op]
+15.4 +15.4 100 +16 +16 996.7 994.5
03 11.07 ЮЗ 3 35 км в посл. час дождь 10/10 300 м
[St]
+17.1 +16.8 98 +17 +17 996.4 994.2 +14.7 4
06 11.07 Ю 3 50 км {дождь} 8/8 600 м
[Cb cap Ci fib]
+21.8 +17.4 76 +26 +28 душно 996.8 994.7
09 11.07 ЮВ 3 65 км 8/5 600 м
[Cb cap Ac trans Ci fib]
+21.7 +16.6 73 +26 +29 душно 996.6 994.5
12 11.07 СЗ 1 15 км слаб. ливневой дождь, в посл. час гроза 6/6 600 м
[Cb cap]
+21.3 +17.9 81 +25 +28 комфорт 996.2 994.1
15 11.07 В 1
{13}
>70 км {ливн. осадки} 8/8 600 м
[Cb cap]
+17.0 +13.9 82 +18 +18 997.4 995.2 +22.7 0.4
18 11.07 ЮЗ 4
{13}
60 км {ливн. осадки} 8/3 1000 м
[Sc Ci ing]
+15.2 +13.5 90 +14 +14 998.7 996.5
21 11.07 Ю 4 >70 км 6/4 600 м
[Cb cap Ci ing]
+14.1 +12.8 92 +13 +13 1000.1 997.9
00 12.07 Ю 4 >70 км 3/3 600 м
[Cu Sc Ci fib]
+13.0 +11.9 93 +11 +11 1001.7 999.5
03 12.07 ЮЗ 3 >70 км 8/8 600 м
[Cb cap]
+16.4 +12.3 77 +16 +17 1004.4 1002.2 +12.7
06 12.07 С 3 65 км 9/9 600 м
[Cb cap]
+14.2 +10.8 80 +13 +14 1007.6 1005.4
09 12.07 СВ 2 >70 км {ливн. осадки} 8/8 600 м
[Cb cap]
+16.6 +10.4 67 +17 +19 1009.7 1007.5
12 12.07 СВ 2 70 км {ливн. осадки} 6/6 600 м
[Cu med, cong]
+19.0 +10.5 58 +20 +23 1011.2 1009.0
15 12.07 СВ 2 70 км 4/4 600 м
[Cu med, cong]
+18.3 +9.9 58 +19 +20 1012.8 1010.6 +19.2 0.0
18 12.07 ЮЗ 1 >70 км 3/1 600 м
[Cu hum Ci fib]
+12.0 +10.9 93 +12 +12 1014.0 1011.8
21 12.07 ЮЗ 1 >70 км 3/1 600 м
[Cu hum Ci fib]
+7.8 +7.8 100 +7 +7 1015.5 1013.2
00 13.07 ЮЗ 1 >70 км 3/0
[Ci fib]
+8.7 +8.7 100 +8 +8 1016.9 1014.6
03 13.07 В 1 >70 км 6/0
[Ci fib]
+17.5 +10.1 62 +19 +24 1017.3 1015.0 +6.8
06 13.07 ЮЗ 2 55 км 10/0
[Ci fib]
+21.5 +10.6 50 +23 +32 комфорт 1017.5 1015.4
12 13.07 СВ 1 60 км 10/0
[As op]
+19.8 +13.4 67 +23 +24 комфорт 1015.5 1013.3
15 13.07 СЗ 1 16 км слаб. дождь 10/0
[As op]
+18.5 +15.6 83 +20 +21 1013.6 1011.4 +22.2 0.0
18 13.07 В 3 >70 км {дождь} 10/5 600 м
[Cb cap Ac As]
+19.5 +13.6 69 +21 +21 комфорт 1009.2 1007.0
21 13.07 Ю 3
{10}
65 км в посл. час гроза {ливн. осадки} 10/8 600 м
[Cb cap Ac As]
+17.4 +16.3 93 +17 +17 1008.0 1005.9
00 14.07 ЮЗ 2
{10}
21 км {гроза, ливн. осадки} 10/0
[Ac trans Ci fib]
+17.3 +17.3 100 +18 +18 1006.8 1004.6
03 14.07 Ю 2 25 км 10/0
[Ac As Ci fib]
+19.1 +18.5 96 +21 +25 комфорт 1006.7 1004.5 +16.9 5
06 14.07 ЮЗ 4 55 км 8/5 600 м
[Cu hum Ci fib]
+24.1 +19.4 75 +29 +32 душно 1006.8 1004.7
09 14.07 ЮЗ 5 45 км 8/8 600 м
[Cb cap]
+25.3 +18.8 67 +30 +31 душно 1008.0 1005.9
12 14.07 С 4
{10}
40 км 8/8 600 м
[Cb cap]
+23.0 +18.7 77 +29 +30 очень
душно
1008.9 1006.8
15 14.07 С 3 15 км гроза, ливневой дождь 8/8 600 м
[Cb cap]
+18.7 +16.7 88 +20 +20 1009.0 1006.9 +26.4 0.8
18 14.07 С 4
{13}
40 км гроза без осадков {ливн. осадки} 8/3 600 м
[Cb cap Ac As Ci ing]
+18.0 +16.5 91 +18 +18 1006.7 1004.6
21 14.07 С 3
{10}
40 км в посл. час гроза 10/6 600 м
[Cb cap Ac As]
+17.8 +15.6 87 +18 +18 1005.4 1003.2
00 15.07 штиль 0 45 км {гроза, ливн. осадки} 8/4 600 м
[Cb cap Ci ing]
+16.4 +16.4 100 +16 +17 1004.8 1002.7
03 15.07 СЗ 2 60 км 3/3 1000 м
[Sc]
+20.0 +18.0 88 +24 +27 комфорт 1006.0 1003.9 +15.8 0.4
06 15.07 С 4 45 км 8/8 600 м
[Cb cap]
+20.2 +18.0 87 +24 +25 комфорт 1007.4 1005.3
09 15.07 С 4 50 км 8/6 600 м
[Cb cap Ci fib]
+20.9 +17.1 79 +25 +27 комфорт 1009.0 1006.9
12 15.07 С 4 65 км 4/3 600 м
[Cu hum Ci fib]
+20.3 +13.7 66 +23 +25 комфорт 1010.5 1008.3
15 15.07 С 4 60 км 6/4 600 м
[Cu hum Ci fib]
+19.6 +14.0 70 +21 +22 комфорт 1011.2 1009.0 +22.4
18 15.07 С 4 >70 км 9/9 1000 м
[Sc]
+16.4 +12.5 78 +16 +16 1011.6 1009.4
21 15.07 СВ 6-10
{10}
>70 км гроза без осадков 10/10 600 м
[Cb cap]
+16.5 +14.2 86 +15 +15 1011.6 1009.4
00 16.07 СВ 6-11
{13}
65 км в посл. час гроза {ливн. осадки} 9/9 600 м
[Cb cap]
+14.1 +13.0 93 +12 +12 1012.1 1009.9
03 16.07 СЗ 5
{11}
>70 км 10/10 600 м
[Cb cap]
+13.9 +12.2 89 +12 +12 1011.4 1009.2 +13.6 14
06 16.07 СВ 6
{11}
>70 км 10/10 1000 м
[Sc]
+14.4 +12.6 89 +12 +12 1010.4 1008.2 +13.4
09 16.07 СЗ 6
{11}
>70 км 10/8 1000 м
[Sc Ci fib]
+19.1 +15.7 81 +20 +21 1008.8 1006.6
12 16.07 С 5
{11}
45 км 10/3 600 м
[Cu hum Ci fib]
+20.2 +16.7 80 +23 +25 комфорт 1007.8 1005.7

 

Местоположение метеостанции Мужи (Ямало-Ненецкий АО, Россия): широта 65.38 долгота 64.72 высота над уровнем моря 19 м.

В архиве по умолчанию представлена погода в Мужах за последнюю неделю. Архивные данные за месяц целиком и за предыдущие месяцы, начиная с января 2011 года, Вы можете получить, выбрав интересующий диапазон дат из раскрывающегося списка и нажав кнопку "Ввод!".


*Определитесь, кто Вы:
робот инопланетянин человек

Внимание! Время в таблицах - всемирное. Для получения местного времени необходимо прибавить поправку, которая равна 5 ч.

Смотрите также архив погоды в соседних городах и на ближайших метеорологических станциях:

Погода в Питляре (Ямало-Ненецкий АО, Россия) (75 км)
Погода в Салехарде (Ямало-Ненецкий АО, Россия) (155 км)
Погода в Березово (Ханты-Мансийский АО, Россия) (163 км)
Погода в Харпе (Ямало-Ненецкий АО, Россия) (165 км)
Погода в Елецкой (Коми, Россия) (188 км)
Погода в Полуе (Ямало-Ненецкий АО, Россия) (195 км)
Погода в Петруни (Коми, Россия) (214 км)
Погода в Саранпауле (Ханты-Мансийский АО, Россия) (219 км)
Погода в Казым-Мысе (Ханты-Мансийский АО, Россия) (220 км)
Погода в Казыме (Ханты-Мансийский АО, Россия) (220 км)

Пояснения к столбцам:

Ветер - указаны скорость ветра в м/с - средняя за 10 мин, порывы в срок и между сроками (в фигурных скобках) и направление, откуда дует ветер: С - северный, СВ - северо-восточный, В - восточный, ЮВ - юго-восточный, Ю - южный, ЮЗ - юго-западный, З - западный, СЗ - северо-западный.
Видимость - горизонтальная дальность видимости в метрах или километрах. При видимости от 1 до 10 км при отсутствии осадков обычно наблюдается дымка, при ухудшении видимости до 1 км и менее - туман. В сухую погоду видимость может ухудшаться дымом, пылью или мглою.
Явления - указаны атмосферные явления, наблюдавшиеся в срок или в последний час перед сроком; фигурными скобками обозначены явления, наблюдавшиеся между сроками (за 1-3 часа до срока); квадратными скобками обозначены град или гололедные отложения с указанием их диаметра в мм.
Облачность - указаны через наклонную черту общая и нижняя облачность в баллах и высота нижней границы облаков в метрах; квадратными скобками обозначены формы облаков: Ci - перистые, Cs - перисто-слоистые, Cc - перисто-кучевые, Ac - высококучевые, As - высокослоистые, Sc - слоисто-кучевые, Ns - слоисто-дождевые, Cu - кучевые, Cb - кучево-дождевые. Подробнее классификацию облаков см. в Атласе облаков (PDF).
T - Температура воздуха - температура, измеренная на высоте 2 м над землей.
Td - Температура точки росы - температура, при понижении до которой содержащийся в воздухе водяной пар достигнет насыщения.
f - Относительная влажность воздуха - влажноcть воздуха, измеренная на высоте 2 м над землей.
Te - Эффективная температура - температура, которую ощущает одетый по сезону человек в тени. Характеристика душности погоды. При расчете учитывается влияние влажности воздуха и скорости ветра на теплоощущения человека.
Tes - Эффективная температура на солнце - температура, которую ощущает человек, с поправкой на солнечный нагрев. Характеристика знойности погоды. Зависит от высоты солнца над горизонтом, облачности и скорости ветра. Ночью, в пасмурную погоду, а также при ветре 12 м/с и более поправка равна нулю.
P - Атмосферное давление - приведенное к уровню моря атмосферное давление.
Po - Атмосферное давление - измеренное на уровне метеостанции атмосферное давление.
Tmin - Минимальная температура - минимум температуры воздуха на высоте 2 м над землей.
Tmax - Максимальная температура - максимум температуры воздуха на высоте 2 м над землей.
R - Количество осадков - Количество выпавших осадков за период времени, мм. При наведении курсора мыши на число - период времени, за который выпало указанное количество осадков.
R24 - Количество осадков - Количество выпавших осадков за 24 часа, мм.
S - Снежный покров - Высота снежного покрова, см. При наведении курсора мыши на число - состояние снежного покрова и степень покрытия местности в баллах.